Regional Weather Roundup
Issued by NWS

Home | Current Version | Previous Version | Graphics & Text | Print | Product List | Glossary On
Versions: 1 2 3 4 5 6 7 8 9 10 11 12 13 14 15 16 17 18 19 20 21 22 23 24 25 26 27 28 29 30 31 32 33 34 35 36 37 38 39 40 41 42 43 44 45 46 47 48 49 50
000
ASUS43 KIND 251000
RWRIN

WEATHER ROUNDUP FOR INDIANA
NATIONAL WEATHER SERVICE INDIANAPOLIS IN
600 AM EDT SUN JUN 25 2017

NOTE: "FAIR" INDICATES FEW OR NO CLOUDS BELOW 12,000 FEET WITH NO
SIGNIFICANT WEATHER AND/OR OBSTRUCTIONS TO VISIBILITY.

* - STATION DOES NOT REPORT WEATHER SUCH AS PRECIPITATION OR FOG.

+ - STATION NOT QUALITY CONTROLLED BY THE NATIONAL WEATHER SERVICE.
    USE DATA WITH CAUTION...ESPECIALLY DEWPOINT AND RELATIVE
    HUMIDITY OBSERVATIONS.

INZ001>003-010>013-019-020-251100-
NORTHWEST INDIANA

CITY           SKY/WX    TMP DP  RH WIND       PRES   REMARKS
GARY /AIRPORT/ CLOUDY    55  45  67 W9        30.07S
KNOX *+        PTCLDY    55  39  54 W8        30.06R
MONTICELLO +   MOCLDY    56  48  76 W7        30.07S

$$

LMZ046-743>745-251100-
SOUTHERN LAKE MICHIGAN

STATION/POSITION TIME  TEMP    WIND        PRES    WAVE
                       AIR SEA DIR/SP/G            HT
                 (UTC) (F)     (DEG/KT/KT) (MB)    (FT)
BURNS HARBOR     0940   62     300/ 15/ 19 1017.9R
MICHIGAN CITY    0930   60     270/ 23/ 25   N/A
5NW MICH CITY    0950   61 67  290/ 16/ 21   N/A     5

$$

INZ004-005-014>016-021>024-251100-
NORTH CENTRAL INDIANA

CITY           SKY/WX    TMP DP  RH WIND       PRES   REMARKS
GOSHEN         PTCLDY    55  46  71 SW8       30.03R
SOUTH BEND     CLEAR     54  48  80 W9        30.04S

$$

INZ006>009-017-018-025>027-251100-
NORTHEAST INDIANA

CITY           SKY/WX    TMP DP  RH WIND       PRES   REMARKS
FORT WAYNE     MOCLDY    55  48  77 SW10      30.05R
KENDALLVILLE + PTCLDY    56  47  71 SW7       30.03S

$$

INZ028-029-035-036-043>045-051>053-251100-
WEST CENTRAL INDIANA

CITY           SKY/WX    TMP DP  RH WIND       PRES   REMARKS
CRAWFORDSVL +  PTCLDY    53  49  85 SW7       30.11R
LAFAYETTE      PTCLDY    53  49  86 W6        30.09R
TERRE HAUTE    PTCLDY    57  47  69 SW5       30.12S

$$

INZ030>032-037>040-046>048-054>057-064-065-251100-
CENTRAL INDIANA

CITY           SKY/WX    TMP DP  RH WIND       PRES   REMARKS
GREENWOOD *+   MOCLDY    56  47  72 SW5       30.12R
INDIANAPOLIS   PTCLDY    54  49  83 SW8       30.11R
-EAGLE CREEK   CLEAR     57  46  66 SW7       30.10R
KOKOMO +       PTCLDY    59  47  64 SW10      30.08R
MT COMFORT *+  PTCLDY    55  48  76 SW6       30.10S
SHELBYVILLE    PTCLDY    56  49  77 SW6       30.11R

$$

INZ033-034-041-042-049-050-058-059-251100-
EAST CENTRAL INDIANA

CITY           SKY/WX    TMP DP  RH WIND       PRES   REMARKS
MUNCIE         CLEAR     58  47  66 SW7       30.09R
RICHMOND +     CLEAR     52  46  82 W5        30.12R HAZE

$$

INZ060-061-067>069-081>083-085>088-251100-
SOUTHWEST INDIANA

CITY           SKY/WX    TMP DP  RH WIND       PRES   REMARKS
EVANSVILLE     CLEAR     54  52  93 SW5       30.17R
HUNTINGBURG *+ CLEAR     54  53  97 S5        30.17R

$$

INZ062-063-066-070>080-084-089>092-251100-
SOUTH CENTRAL AND SOUTHEAST INDIANA

CITY           SKY/WX    TMP DP  RH WIND       PRES   REMARKS
BLOOMINGTON    CLEAR     56  47  71 SW6       30.14R
MADISON *+     CLEAR     54  52  94 CALM      30.16R
SEYMOUR +      CLEAR     55  54  94 S3        30.14R

$$





USA.gov is the U.S. government's official web portal to all federal, state and local government web resources and services.